Smyrna, TN

6:42 PM CST on November 16, 2019 (GMT -0600)
Smyrna

Weather History for KMQY - October, 2019

Change the Weather History Date:

Tuesday, October 22, 2019

  Actual Average Record
Temperature  
Mean Temperature 58 °F -  
Max Temperature 66 °F 67 °F 81 °F (2012)
Min Temperature 48 °F 49 °F 30 °F (2018)
Degree Days  
Heating Degree Days 7    
Growing Degree Days 8 (Base 50)    
Moisture  
Dew Point 46 °F    
Average Humidity 67    
Maximum Humidity 94    
Minimum Humidity 37    
Precipitation  
Precipitation 0.00 in - - ()
Sea Level Pressure  
Sea Level Pressure 30.00 in    
Wind  
Wind Speed 7 mph ()    
Max Wind Speed 15 mph    
Max Gust Speed 23 mph    
Visibility 10.0 miles    
Events      
Averages and records for this station are not official NWS values.
T = Trace of Precipitation, MM = Missing Value Source: Averaged Metar Reports

Daily Weather History Graph

Daily Weather History Graph

Search for Another Location

Airport or City:

Astronomy

Oct. 22, 2019 Rise Set
Actual Time 6:58 AM CDT 6:01 PM CDT
Civil Twilight 6:32 AM CDT 6:27 PM CDT
Nautical Twilight 6:02 AM CDT 6:57 PM CDT
Astronomical Twilight 5:33 AM CDT 7:27 PM CDT
Moon 12:23 AM CDT (10/22) 2:56 PM CDT (10/22)
Length of Visible Light 11h 54m
Length of Day
11h 02m
Last Quarter, 37% of the Moon is Illuminated
Oct 22
Last Quarter
Oct 27
New
Nov 4
First Quarter
Nov 12
Full
Nov 19
Last Quarter

Hourly Weather History & Observations

Time (CDT) Temp. Dew Point Humidity Pressure Visibility Wind Dir Wind Speed Gust Speed Precip Events Conditions
12:26 AM 62.6 °F 60.8 °F 94% 29.89 in 10.0 mi West 5.8 mph - N/A   Overcast
12:56 AM 61.0 °F 59.0 °F 93% 29.91 in 10.0 mi WSW 6.9 mph - N/A   Overcast
1:49 AM 60.8 °F 57.2 °F 88% 29.89 in 10.0 mi WSW 6.9 mph - N/A   Overcast
1:56 AM 61.0 °F 57.9 °F 90% 29.91 in 10.0 mi West 5.8 mph - N/A   Overcast
2:56 AM 60.1 °F 57.0 °F 90% 29.92 in 10.0 mi West 9.2 mph - N/A   Overcast
3:56 AM 57.9 °F 55.0 °F 90% 29.93 in 10.0 mi WSW 8.1 mph - N/A   Overcast
4:56 AM 55.0 °F 53.1 °F 93% 29.94 in 10.0 mi SW 4.6 mph - N/A   Partly Cloudy
5:56 AM 54.0 °F 51.1 °F 90% 29.95 in 10.0 mi SW 3.5 mph - N/A   Clear
6:56 AM 53.1 °F 50.0 °F 89% 29.96 in 10.0 mi SSW 5.8 mph - N/A   Clear
7:56 AM 55.0 °F 50.0 °F 83% 29.98 in 10.0 mi SW 10.4 mph - N/A   Clear
8:56 AM 57.0 °F 48.0 °F 72% 30.01 in 10.0 mi WSW 12.7 mph - N/A   Clear
9:56 AM 59.0 °F 45.0 °F 60% 30.02 in 10.0 mi West 13.8 mph - N/A   Clear
10:56 AM 62.1 °F 44.1 °F 52% 30.01 in 10.0 mi West 13.8 mph 19.6 mph N/A   Clear
11:56 AM 63.0 °F 43.0 °F 48% 30.03 in 10.0 mi WSW 13.8 mph - N/A   Clear
12:56 PM 64.9 °F 42.1 °F 43% 30.01 in 10.0 mi SW 12.7 mph 23.0 mph N/A   Clear
1:56 PM 66.0 °F 41.0 °F 40% 29.99 in 10.0 mi West 12.7 mph - N/A   Partly Cloudy
2:56 PM 66.0 °F 39.9 °F 38% 29.99 in 10.0 mi West 15.0 mph 19.6 mph N/A   Partly Cloudy
3:56 PM 66.9 °F 39.9 °F 37% 29.99 in 10.0 mi West 12.7 mph 19.6 mph N/A   Scattered Clouds
4:56 PM 64.0 °F 39.0 °F 40% 30.00 in 10.0 mi West 13.8 mph - N/A   Scattered Clouds
5:56 PM 61.0 °F 39.9 °F 46% 30.01 in 10.0 mi WSW 10.4 mph - N/A   Partly Cloudy
6:56 PM 57.9 °F 39.0 °F 49% 30.04 in 10.0 mi WSW 8.1 mph - N/A   Clear
7:56 PM 55.0 °F 39.0 °F 55% 30.08 in 10.0 mi West 10.4 mph - N/A   Partly Cloudy
8:56 PM 54.0 °F 37.9 °F 55% 30.10 in 10.0 mi SW 5.8 mph - N/A   Clear
9:56 PM 52.0 °F 39.0 °F 61% 30.12 in 10.0 mi SSW 4.6 mph - N/A   Clear
10:56 PM 50.0 °F 37.9 °F 63% 30.12 in 10.0 mi South 3.5 mph - N/A   Clear
11:56 PM 48.0 °F 39.0 °F 71% 30.12 in 10.0 mi SSW 4.6 mph - N/A   Clear